| time (UTC) | temp F | wind direction | speed MPH | gust MPH | rain 1hr in | rain 24hr in | rain mn in | humidity % | barometer mb |
| 20260504202324 | 73 | 221 | 0.0 | 2.0 | 0.00 | 0.00 | 0.00 | 40 | 1003.1 |
| 20260504201840 | 73 | 221 | 0.0 | 0.0 | 0.00 | 0.00 | 0.00 | 40 | 1003.2 |
| 20260504201333 | 73 | 221 | 0.0 | 1.0 | 0.00 | 0.00 | 0.00 | 39 | 1003.3 |
| 20260504200827 | 73 | 221 | 0.0 | 6.0 | 0.00 | 0.00 | 0.00 | 38 | 1003.3 |
| 20260504200346 | 73 | 221 | 1.0 | 6.0 | 0.00 | 0.00 | 0.00 | 36 | 1003.4 |
| 20260504195841 | 73 | 221 | 0.0 | 1.0 | 0.00 | 0.00 | 0.00 | 41 | 1003.4 |
| 20260504195337 | 73 | 221 | 0.0 | 1.0 | 0.00 | 0.00 | 0.00 | 41 | 1003.5 |
| 20260504194830 | 73 | 221 | 0.0 | 0.0 | 0.00 | 0.00 | 0.00 | 40 | 1003.6 |
| 20260504194323 | 73 | 221 | 0.0 | 1.0 | 0.00 | 0.00 | 0.00 | 39 | 1003.7 |
| 20260504193835 | 72 | 221 | 0.0 | 1.0 | 0.00 | 0.00 | 0.00 | 41 | 1003.7 |
| 20260504193329 | 72 | 221 | 0.0 | 1.0 | 0.00 | 0.00 | 0.00 | 39 | 1003.7 |
| 20260504192823 | 73 | 221 | 0.0 | 1.0 | 0.00 | 0.00 | 0.00 | 41 | 1004.0 |
| 20260504192339 | 73 | 221 | 0.0 | 4.0 | 0.00 | 0.00 | 0.00 | 38 | 1003.9 |
| 20260504191833 | 73 | 221 | 0.0 | 4.0 | 0.00 | 0.00 | 0.00 | 41 | 1004.0 |
| 20260504191327 | 73 | 221 | 0.0 | 6.0 | 0.00 | 0.00 | 0.00 | 39 | 1004.1 |
| 20260504190819 | 73 | 221 | 0.0 | 6.0 | 0.00 | 0.00 | 0.00 | 40 | 1004.1 |
| 20260504190338 | 73 | 221 | 0.0 | 5.0 | 0.00 | 0.00 | 0.00 | 41 | 1004.1 |
| 20260504185832 | 72 | 221 | 0.0 | 0.0 | 0.00 | 0.00 | 0.00 | 42 | 1004.0 |
| 20260504185324 | 72 | 221 | 0.0 | 2.0 | 0.00 | 0.00 | 0.00 | 43 | 1004.2 |
| 20260504184839 | 72 | 221 | 0.0 | 2.0 | 0.00 | 0.00 | 0.00 | 45 | 1004.4 |
| 20260504184330 | 72 | 221 | 0.0 | 5.0 | 0.00 | 0.00 | 0.00 | 42 | 1004.4 |
| 20260504183844 | 72 | 221 | 1.0 | 5.0 | 0.00 | 0.00 | 0.00 | 42 | 1004.5 |
| 20260504183338 | 72 | 221 | 0.0 | 4.0 | 0.00 | 0.00 | 0.00 | 43 | 1004.6 |
| 20260504182832 | 72 | 221 | 1.0 | 5.0 | 0.00 | 0.00 | 0.00 | 43 | 1004.7 |
| 20260504182322 | 71 | 221 | 0.0 | 5.0 | 0.00 | 0.00 | 0.00 | 46 | 1004.6 |
| 20260504181834 | 72 | 221 | 0.0 | 5.0 | 0.00 | 0.00 | 0.00 | 45 | 1004.6 |
| 20260504181326 | 71 | 221 | 0.0 | 5.0 | 0.00 | 0.00 | 0.00 | 46 | 1004.7 |
| 20260504180820 | 71 | 221 | 0.0 | 5.0 | 0.00 | 0.00 | 0.00 | 46 | 1004.7 |
| 20260504180334 | 71 | 221 | 0.0 | 0.0 | 0.00 | 0.00 | 0.00 | 48 | 1004.7 |
| 20260504175828 | 70 | 221 | 0.0 | 2.0 | 0.00 | 0.00 | 0.00 | 51 | 1004.8 |
| 20260504175343 | 70 | 221 | 0.0 | 2.0 | 0.00 | 0.00 | 0.00 | 46 | 1004.8 |
| 20260504174834 | 70 | 221 | 0.0 | 2.0 | 0.00 | 0.00 | 0.00 | 49 | 1004.8 |
| 20260504174350 | 70 | 221 | 0.0 | 7.0 | 0.00 | 0.00 | 0.00 | 50 | 1004.9 |
| 20260504173823 | 70 | 221 | 1.0 | 7.0 | 0.00 | 0.00 | 0.00 | 47 | 1005.0 |
| 20260504173336 | 69 | 221 | 0.0 | 1.0 | 0.00 | 0.00 | 0.00 | 49 | 1005.0 |
| 20260504172829 | 69 | 221 | 0.0 | 1.0 | 0.00 | 0.00 | 0.00 | 48 | 1005.0 |
| 20260504172323 | 69 | 221 | 0.0 | 1.0 | 0.00 | 0.00 | 0.00 | 50 | 1005.0 |
| 20260504171834 | 69 | 221 | 0.0 | 1.0 | 0.00 | 0.00 | 0.00 | 48 | 1005.0 |
| 20260504171328 | 69 | 221 | 0.0 | 0.0 | 0.00 | 0.00 | 0.00 | 50 | 1005.0 |
| 20260504170843 | 69 | 221 | 0.0 | 0.0 | 0.00 | 0.00 | 0.00 | 52 | 1005.1 |
| 20260504170333 | 68 | 221 | 0.0 | 0.0 | 0.00 | 0.00 | 0.00 | 52 | 1005.1 |
| 20260504160329 | 65 | 221 | 0.0 | 2.0 | 0.00 | 0.00 | 0.00 | 53 | 1005.7 |
| 20260504150837 | 62 | 221 | 0.0 | 1.0 | 0.00 | 0.00 | 0.00 | 55 | 1006.1 |
| 20260504150349 | 62 | 221 | 0.0 | 0.0 | 0.00 | 0.00 | 0.00 | 54 | 1006.1 |
| 20260504141325 | 59 | 221 | 0.0 | 5.0 | 0.00 | 0.00 | 0.00 | 56 | 1006.1 |
| 20260504140834 | 59 | 221 | 0.0 | 5.0 | 0.00 | 0.00 | 0.00 | 56 | 1006.1 |
| 20260504140325 | 59 | 221 | 0.0 | 1.0 | 0.00 | 0.00 | 0.00 | 57 | 1006.1 |
| 20260504130334 | 56 | 221 | 0.0 | 0.0 | 0.00 | 0.00 | 0.00 | 58 | 1006.8 |
| 20260504110330 | 51 | 221 | 0.0 | 0.0 | 0.00 | 0.00 | 0.00 | 62 | 1006.8 |
| 20260504100336 | 50 | 221 | 0.0 | 0.0 | 0.00 | 0.00 | 0.00 | 61 | 1006.7 |
| 20260504081835 | 50 | 221 | 0.0 | 0.0 | 0.00 | 0.00 | 0.00 | 64 | 1007.2 |
| 20260504081330 | 49 | 221 | 0.0 | 0.0 | 0.00 | 0.00 | 0.00 | 64 | 1007.2 |
| 20260504080823 | 49 | 221 | 0.0 | 0.0 | 0.00 | 0.00 | 0.00 | 64 | 1007.3 |
| 20260504080337 | 49 | 221 | 0.0 | 0.0 | 0.00 | 0.00 | 0.00 | 64 | 1007.3 |
| 20260504070331 | 49 | 221 | 0.0 | 0.0 | 0.00 | 0.00 | 0.00 | 64 | 1007.8 |
| 20260504050329 | 52 | 221 | 0.0 | 0.0 | 0.00 | 0.00 | 0.00 | 62 | 1008.4 |
| 20260504045822 | 52 | 221 | 0.0 | 0.0 | 0.00 | 0.00 | 0.00 | 61 | 1008.4 |
| 20260504045356 | 52 | 221 | 0.0 | 0.0 | 0.00 | 0.00 | 0.00 | 59 | 1008.5 |
| 20260504044827 | 52 | 221 | 0.0 | 0.0 | 0.00 | 0.00 | 0.00 | 61 | 1008.5 |
| 20260504044339 | 52 | 221 | 0.0 | 0.0 | 0.00 | 0.00 | 0.00 | 60 | 1008.4 |
| 20260504043830 | 52 | 221 | 0.0 | 0.0 | 0.00 | 0.00 | 0.00 | 59 | 1008.5 |
| 20260504043323 | 52 | 221 | 0.0 | 0.0 | 0.00 | 0.00 | 0.00 | 58 | 1008.5 |
| 20260504042859 | 53 | 221 | 0.0 | 0.0 | 0.00 | 0.00 | 0.00 | 58 | 1008.5 |
| 20260504042331 | 53 | 221 | 0.0 | 0.0 | 0.00 | 0.00 | 0.00 | 59 | 1008.5 |
| 20260504041825 | 53 | 221 | 0.0 | 0.0 | 0.00 | 0.00 | 0.00 | 58 | 1008.5 |
| 20260504041319 | 53 | 221 | 0.0 | 0.0 | 0.00 | 0.00 | 0.00 | 58 | 1008.4 |
| 20260504040836 | 53 | 221 | 0.0 | 0.0 | 0.00 | 0.00 | 0.00 | 57 | 1008.5 |
| 20260504040329 | 53 | 221 | 0.0 | 0.0 | 0.00 | 0.00 | 0.00 | 57 | 1008.4 |
| 20260504035823 | 54 | 221 | 0.0 | 0.0 | 0.00 | 0.00 | 0.00 | 57 | 1008.5 |
| 20260504035339 | 54 | 221 | 0.0 | 0.0 | 0.00 | 0.00 | 0.00 | 58 | 1008.4 |
| 20260504034851 | 54 | 221 | 0.0 | 0.0 | 0.00 | 0.00 | 0.00 | 57 | 1008.4 |
| 20260504034323 | 54 | 221 | 0.0 | 0.0 | 0.00 | 0.00 | 0.00 | 57 | 1008.4 |
| 20260504033839 | 54 | 221 | 0.0 | 0.0 | 0.00 | 0.00 | 0.00 | 57 | 1008.5 |
| 20260504033335 | 54 | 221 | 0.0 | 0.0 | 0.00 | 0.00 | 0.00 | 57 | 1008.4 |
| 20260504032828 | 54 | 221 | 0.0 | 0.0 | 0.00 | 0.00 | 0.00 | 56 | 1008.4 |
| 20260504032324 | 54 | 221 | 0.0 | 0.0 | 0.00 | 0.00 | 0.00 | 57 | 1008.5 |
| 20260504031834 | 54 | 221 | 0.0 | 0.0 | 0.00 | 0.00 | 0.00 | 56 | 1008.5 |
| 20260504031328 | 53 | 221 | 0.0 | 0.0 | 0.00 | 0.00 | 0.00 | 57 | 1008.4 |
| 20260504030843 | 53 | 221 | 0.0 | 0.0 | 0.00 | 0.00 | 0.00 | 58 | 1008.5 |
| 20260504030335 | 53 | 221 | 0.0 | 0.0 | 0.00 | 0.00 | 0.00 | 58 | 1008.5 |
| 20260504025832 | 53 | 221 | 0.0 | 0.0 | 0.00 | 0.00 | 0.00 | 59 | 1008.5 |
| 20260504025327 | 53 | 221 | 0.0 | 0.0 | 0.00 | 0.00 | 0.00 | 59 | 1008.6 |
| 20260504024820 | 53 | 221 | 0.0 | 0.0 | 0.00 | 0.00 | 0.00 | 61 | 1008.6 |
| 20260504024337 | 53 | 221 | 0.0 | 0.0 | 0.00 | 0.00 | 0.00 | 58 | 1008.7 |
| 20260504023830 | 53 | 221 | 0.0 | 0.0 | 0.00 | 0.00 | 0.00 | 58 | 1008.8 |
| 20260504023323 | 53 | 221 | 0.0 | 0.0 | 0.00 | 0.00 | 0.00 | 58 | 1008.8 |
| 20260504022839 | 53 | 221 | 0.0 | 0.0 | 0.00 | 0.00 | 0.00 | 57 | 1008.8 |
| 20260504022330 | 53 | 221 | 0.0 | 0.0 | 0.00 | 0.00 | 0.00 | 59 | 1008.9 |
| 20260504021823 | 54 | 221 | 0.0 | 0.0 | 0.00 | 0.00 | 0.00 | 59 | 1008.9 |
| 20260504021335 | 54 | 221 | 0.0 | 0.0 | 0.00 | 0.00 | 0.00 | 58 | 1008.9 |
| 20260504020826 | 54 | 221 | 0.0 | 0.0 | 0.00 | 0.00 | 0.00 | 57 | 1008.9 |
| 20260504020337 | 54 | 221 | 0.0 | 0.0 | 0.00 | 0.00 | 0.00 | 57 | 1008.8 |
| 20260504015830 | 54 | 221 | 0.0 | 0.0 | 0.00 | 0.00 | 0.00 | 56 | 1008.8 |
| 20260504015321 | 54 | 221 | 0.0 | 0.0 | 0.00 | 0.00 | 0.00 | 58 | 1008.8 |
| 20260504014831 | 53 | 221 | 0.0 | 1.0 | 0.00 | 0.00 | 0.00 | 58 | 1008.7 |
| 20260504014322 | 53 | 221 | 0.0 | 1.0 | 0.00 | 0.00 | 0.00 | 59 | 1008.7 |
| 20260504013841 | 53 | 221 | 0.0 | 2.0 | 0.00 | 0.00 | 0.00 | 60 | 1008.7 |
| 20260504013357 | 53 | 221 | 0.0 | 2.0 | 0.00 | 0.00 | 0.00 | 61 | 1008.8 |
| 20260504012829 | 53 | 221 | 0.0 | 0.0 | 0.00 | 0.00 | 0.00 | 62 | 1008.8 |
| 20260504012323 | 53 | 221 | 0.0 | 0.0 | 0.00 | 0.00 | 0.00 | 64 | 1009.0 |
| 20260504011836 | 53 | 221 | 0.0 | 0.0 | 0.00 | 0.00 | 0.00 | 64 | 1009.1 |
| 20260504011330 | 53 | 221 | 0.0 | 0.0 | 0.00 | 0.00 | 0.00 | 62 | 1009.2 |
| 20260504010823 | 53 | 221 | 0.0 | 7.0 | 0.00 | 0.00 | 0.00 | 63 | 1009.3 |
| 20260504010339 | 52 | 221 | 1.0 | 7.0 | 0.00 | 0.00 | 0.00 | 64 | 1009.1 |
| 20260504005832 | 52 | 221 | 0.0 | 1.0 | 0.00 | 0.00 | 0.00 | 66 | 1009.0 |
| 20260504005326 | 52 | 221 | 0.0 | 0.0 | 0.00 | 0.00 | 0.00 | 68 | 1009.0 |
| 20260504004823 | 52 | 221 | 0.0 | 5.0 | 0.00 | 0.00 | 0.00 | 68 | 1009.0 |
| 20260504004337 | 52 | 221 | 0.0 | 5.0 | 0.00 | 0.00 | 0.00 | 68 | 1009.1 |
| 20260504003831 | 52 | 221 | 0.0 | 4.0 | 0.00 | 0.00 | 0.00 | 68 | 1009.4 |
| 20260504003325 | 52 | 221 | 0.0 | 3.0 | 0.00 | 0.00 | 0.00 | 67 | 1009.5 |
| 20260504002838 | 52 | 221 | 0.0 | 6.0 | 0.00 | 0.00 | 0.00 | 66 | 1009.5 |
| 20260504002332 | 53 | 221 | 1.0 | 6.0 | 0.00 | 0.00 | 0.00 | 66 | 1009.5 |
| 20260504001825 | 53 | 221 | 0.0 | 8.0 | 0.00 | 0.00 | 0.00 | 65 | 1009.4 |
| 20260504001321 | 53 | 221 | 0.0 | 7.0 | 0.00 | 0.00 | 0.00 | 63 | 1009.4 |
| 20260504000835 | 53 | 221 | 2.0 | 7.0 | 0.00 | 0.00 | 0.00 | 62 | 1009.4 |
| 20260504000328 | 53 | 221 | 1.0 | 7.0 | 0.00 | 0.00 | 0.00 | 61 | 1009.3 |
| 20260503235823 | 53 | 221 | 0.0 | 12.0 | 0.00 | 0.00 | 0.00 | 60 | 1009.2 |
| 20260503235333 | 54 | 221 | 1.0 | 12.0 | 0.00 | 0.00 | 0.00 | 59 | 1009.1 |
| 20260503234825 | 54 | 221 | 2.0 | 10.0 | 0.00 | 0.00 | 0.00 | 59 | 1009.1 |
| 20260503234319 | 54 | 221 | 0.0 | 11.0 | 0.00 | 0.00 | 0.00 | 57 | 1009.2 |
| 20260503233835 | 55 | 221 | 2.0 | 12.0 | 0.00 | 0.00 | 0.00 | 56 | 1009.2 |
| 20260503233329 | 55 | 220 | 5.0 | 12.0 | 0.00 | 0.00 | 0.00 | 55 | 1009.3 |
| 20260503232848 | 55 | 219 | 0.0 | 11.0 | 0.00 | 0.00 | 0.00 | 53 | 1009.1 |
| 20260503232322 | 55 | 219 | 1.0 | 11.0 | 0.00 | 0.00 | 0.00 | 52 | 1009.1 |
| 20260503231834 | 56 | 218 | 0.0 | 7.0 | 0.00 | 0.00 | 0.00 | 51 | 1009.0 |
| 20260503231328 | 56 | 218 | 1.0 | 5.0 | 0.00 | 0.00 | 0.00 | 51 | 1008.8 |
| 20260503230825 | 56 | 218 | 0.0 | 4.0 | 0.00 | 0.00 | 0.00 | 49 | 1008.8 |
| 20260503230338 | 56 | 218 | 1.0 | 10.0 | 0.00 | 0.00 | 0.00 | 49 | 1008.7 |
| 20260503225831 | 56 | 218 | 0.0 | 11.0 | 0.00 | 0.00 | 0.00 | 48 | 1008.6 |
| 20260503225325 | 56 | 217 | 1.0 | 8.0 | 0.00 | 0.00 | 0.00 | 48 | 1008.5 |
| 20260503224819 | 56 | 217 | 0.0 | 5.0 | 0.00 | 0.00 | 0.00 | 47 | 1008.6 |
| 20260503224335 | 56 | 217 | 0.0 | 5.0 | 0.00 | 0.00 | 0.00 | 46 | 1008.6 |
| 20260503223829 | 56 | 217 | 0.0 | 4.0 | 0.00 | 0.00 | 0.00 | 46 | 1008.6 |
| 20260503223345 | 56 | 217 | 0.0 | 4.0 | 0.00 | 0.00 | 0.00 | 47 | 1008.5 |
| 20260503222838 | 56 | 217 | 0.0 | 0.0 | 0.00 | 0.00 | 0.00 | 48 | 1008.4 |
| 20260503222332 | 56 | 217 | 0.0 | 2.0 | 0.00 | 0.00 | 0.00 | 48 | 1008.4 |
| 20260503221828 | 56 | 217 | 0.0 | 4.0 | 0.00 | 0.00 | 0.00 | 46 | 1008.5 |
| 20260503221337 | 56 | 217 | 0.0 | 4.0 | 0.00 | 0.00 | 0.00 | 47 | 1008.5 |
| 20260503220829 | 57 | 217 | 0.0 | 6.0 | 0.00 | 0.00 | 0.00 | 47 | 1008.8 |
| 20260503220323 | 57 | 217 | 0.0 | 6.0 | 0.00 | 0.00 | 0.00 | 46 | 1008.7 |
| 20260503215838 | 57 | 217 | 0.0 | 8.0 | 0.00 | 0.00 | 0.00 | 46 | 1008.8 |
| 20260503215330 | 57 | 217 | 3.0 | 8.0 | 0.00 | 0.00 | 0.00 | 45 | 1008.9 |
| 20260503214825 | 57 | 217 | 0.0 | 8.0 | 0.00 | 0.00 | 0.00 | 45 | 1008.8 |
| 20260503214338 | 57 | 217 | 0.0 | 2.0 | 0.00 | 0.00 | 0.00 | 46 | 1008.7 |
| 20260503213828 | 57 | 217 | 0.0 | 9.0 | 0.00 | 0.00 | 0.00 | 45 | 1008.8 |
| 20260503213323 | 57 | 217 | 3.0 | 10.0 | 0.00 | 0.00 | 0.00 | 43 | 1008.8 |
| 20260503212858 | 57 | 216 | 1.0 | 10.0 | 0.00 | 0.00 | 0.00 | 45 | 1008.7 |
| 20260503212329 | 57 | 216 | 1.0 | 6.0 | 0.00 | 0.00 | 0.00 | 44 | 1008.5 |
| 20260503211823 | 57 | 216 | 1.0 | 6.0 | 0.00 | 0.00 | 0.00 | 44 | 1008.6 |
| 20260503211336 | 57 | 216 | 1.0 | 7.0 | 0.00 | 0.00 | 0.00 | 42 | 1008.5 |
| 20260503210850 | 58 | 216 | 1.0 | 10.0 | 0.00 | 0.00 | 0.00 | 43 | 1008.6 |
| 20260503210322 | 58 | 216 | 1.0 | 10.0 | 0.00 | 0.00 | 0.00 | 42 | 1008.6 |
| 20260503205836 | 58 | 216 | 2.0 | 8.0 | 0.00 | 0.00 | 0.00 | 42 | 1008.6 |
| 20260503205332 | 58 | 215 | 1.0 | 7.0 | 0.00 | 0.00 | 0.00 | 44 | 1008.6 |
| 20260503204825 | 57 | 215 | 0.0 | 5.0 | 0.00 | 0.00 | 0.00 | 45 | 1008.6 |
| 20260503204319 | 57 | 215 | 0.0 | 2.0 | 0.00 | 0.00 | 0.00 | 42 | 1008.8 |
| 20260503203835 | 57 | 215 | 0.0 | 5.0 | 0.00 | 0.00 | 0.00 | 44 | 1008.8 |
| 20260503203329 | 58 | 215 | 1.0 | 9.0 | 0.00 | 0.00 | 0.00 | 44 | 1008.9 |
| 20260503202826 | 57 | 215 | 3.0 | 9.0 | 0.00 | 0.00 | 0.00 | 43 | 1008.9 |